Date String (YYYY-MM-DD hh:mm:ss) UTC,Instrument flags,Ambient pressure (hPa),Sample flow (lpm),Bypass flow (lpm),Sample temperature (°C),Ambient temperature (°C),ASC tube jacket temperature (°C),LED temperature (°C),Box temperature (°C),Sample RH (%),Span deviation,Mass concentration (μg/m³),Mass concentration (μg/m³),Mass concentration (μg/m³)
DateTimeUTC,F1_M11,P_M11,Q1_M11,Q2_M11,T1_M11,T2_M11,T3_M11,T4_M11,T5_M11,U1_M11,ZSPAN_M11,X0_M11,X2_M11,X1_M11
2022-11-29 17:00:00,,0818.4,5.00,0.00,22.5,20.8,00.0,31.5,24.3,10.2,0000.0,0003.69,0001.47,0001.16
2022-11-29 17:01:00,,0818.4,5.01,0.00,22.5,20.7,00.0,31.5,24.3,10.2,0000.0,0003.71,0001.47,0001.17
2022-11-29 17:02:00,,0818.4,5.01,0.00,22.5,20.7,00.0,31.5,24.3,10.2,0000.0,0003.70,0001.46,0001.16
2022-11-29 17:03:00,,0818.4,4.99,0.00,22.5,20.7,00.0,31.5,24.2,10.2,0000.0,0003.74,0001.43,0001.16
2022-11-29 17:04:00,,0818.4,5.01,0.00,22.4,20.7,00.0,31.5,24.2,10.2,0000.0,0003.74,0001.43,0001.15
2022-11-29 17:05:00,,0818.4,5.00,0.00,22.4,20.8,00.0,31.4,24.2,10.2,0000.0,0003.78,0001.44,0001.16
2022-11-29 17:06:00,,0818.5,4.99,0.00,22.4,20.7,00.0,31.4,24.2,10.1,0000.0,0003.78,0001.44,0001.16
2022-11-29 17:07:00,,0818.5,5.01,0.00,22.4,20.7,00.0,31.4,24.2,10.1,0000.0,0003.73,0001.43,0001.16
2022-11-29 17:08:00,,0818.5,5.00,0.00,22.3,20.6,00.0,31.4,24.1,10.1,0000.0,0003.80,0001.47,0001.18
2022-11-29 17:09:00,,0818.5,5.01,0.00,22.3,20.5,00.0,31.4,24.1,10.1,0000.0,0002.56,0001.51,0001.20
2022-11-29 17:10:00,,0818.5,5.00,0.00,22.3,21.1,00.0,31.3,24.2,10.1,0000.0,0002.59,0001.54,0001.23
2022-11-29 17:11:00,,0818.5,5.01,0.00,22.4,22.2,00.0,31.3,24.4,10.1,0000.0,0002.42,0001.50,0001.24
2022-11-29 17:12:00,,0818.5,4.99,0.00,22.5,22.4,00.0,31.3,24.5,10.1,0000.0,0002.41,0001.51,0001.24
2022-11-29 17:13:00,,0818.4,4.99,0.00,22.5,21.9,00.0,31.3,24.3,10.1,0000.0,0002.44,0001.54,0001.26
2022-11-29 17:14:00,,0818.5,5.00,0.00,22.4,21.4,00.0,31.3,24.2,10.1,0000.0,0002.44,0001.59,0001.28
2022-11-29 17:15:00,,0818.5,5.01,0.00,22.4,21.1,00.0,31.3,24.1,10.2,0000.0,0002.60,0001.64,0001.30
2022-11-29 17:16:00,,0818.5,5.01,0.00,22.4,20.9,00.0,31.3,24.1,10.2,0000.0,0002.87,0001.71,0001.32
2022-11-29 17:17:00,,0818.5,5.00,0.00,22.3,20.7,00.0,31.3,24.0,10.2,0000.0,0002.91,0001.74,0001.34
2022-11-29 17:18:00,,0818.5,5.00,0.00,22.2,20.5,00.0,31.3,23.9,10.3,0000.0,0002.94,0001.76,0001.35
2022-11-29 17:19:00,,0818.4,5.00,0.00,22.2,20.3,00.0,31.3,23.8,10.3,0000.0,0002.89,0001.73,0001.36
2022-11-29 17:20:00,,0818.5,4.99,0.00,22.1,20.2,00.0,31.3,23.7,10.4,0000.0,0002.89,0001.74,0001.36
2022-11-29 17:21:00,,0818.5,4.99,0.00,22.1,20.1,00.0,31.2,23.7,10.4,0000.0,0003.65,0001.69,0001.34
2022-11-29 17:22:00,,0818.6,5.00,0.00,22.1,20.2,00.0,31.2,23.7,10.3,0000.0,0004.21,0001.70,0001.33
2022-11-29 17:23:00,,0818.6,5.00,0.00,22.0,20.2,00.0,31.2,23.8,10.2,0000.0,0004.18,0001.68,0001.32
2022-11-29 17:24:00,,0818.6,5.00,0.00,22.0,20.2,00.0,31.2,23.8,10.1,0000.0,0004.09,0001.63,0001.29
2022-11-29 17:25:00,,0818.6,5.00,0.00,22.0,20.2,00.0,31.1,23.7,10.0,0000.0,0004.13,0001.57,0001.26
2022-11-29 17:26:00,,0818.6,5.00,0.00,22.0,20.2,00.0,31.1,23.7,10.1,0000.0,0004.05,0001.52,0001.22
2022-11-29 17:27:00,,0818.6,5.01,0.00,22.0,20.3,00.0,31.1,23.7,10.1,0000.0,0003.75,0001.44,0001.18
2022-11-29 17:28:00,,0818.5,5.01,0.00,22.0,20.4,00.0,31.1,23.7,10.1,0000.0,0003.64,0001.37,0001.13
2022-11-29 17:29:00,,0818.6,5.00,0.00,22.0,20.9,00.0,31.0,23.8,10.1,0000.0,0003.60,0001.33,0001.09
2022-11-29 17:30:00,,0818.6,5.00,0.00,22.1,21.9,00.0,31.0,24.0,10.0,0000.0,0003.49,0001.28,0001.05
2022-11-29 17:31:00,,0818.7,5.00,0.00,22.2,22.4,00.0,31.0,24.2,09.9,0000.0,0003.40,0001.23,0001.02
2022-11-29 17:32:00,,0818.6,4.98,0.00,22.2,22.0,00.0,31.1,24.2,09.9,0000.0,0002.84,0001.23,0001.00
2022-11-29 17:33:00,,0818.6,4.99,0.00,22.2,21.6,00.0,31.1,24.1,10.0,0000.0,0001.98,0001.20,0000.97
2022-11-29 17:34:00,,0818.5,5.00,0.00,22.2,21.3,00.0,31.1,24.0,10.0,0000.0,0001.92,0001.17,0000.97
2022-11-29 17:35:00,,0818.5,5.00,0.00,22.2,21.2,00.0,31.1,24.0,10.0,0000.0,0001.97,0001.19,0000.97
2022-11-29 17:36:00,,0818.5,5.00,0.00,22.2,20.9,00.0,31.1,23.9,10.1,0000.0,0001.82,0001.17,0000.96
2022-11-29 17:37:00,,0818.5,5.00,0.00,22.1,20.7,00.0,31.1,23.9,10.1,0000.0,0001.69,0001.16,0000.97
2022-11-29 17:38:00,,0818.6,5.00,0.00,22.1,20.7,00.0,31.1,23.9,10.1,0000.0,0001.69,0001.16,0000.99
2022-11-29 17:39:00,,0818.7,5.00,0.00,22.1,20.7,00.0,31.1,23.9,10.0,0000.0,0001.77,0001.20,0001.00
2022-11-29 17:40:00,,0818.7,5.01,0.00,22.1,20.7,00.0,31.1,23.9,10.0,0000.0,0001.84,0001.23,0001.02
2022-11-29 17:41:00,,0818.7,5.00,0.00,22.1,20.6,00.0,31.1,23.8,10.0,0000.0,0001.95,0001.25,0001.04
2022-11-29 17:42:00,,0818.7,4.99,0.00,22.1,20.7,00.0,31.1,23.8,10.0,0000.0,0001.95,0001.24,0001.04
2022-11-29 17:43:00,,0818.5,4.99,0.00,22.1,20.7,00.0,31.1,23.9,10.0,0000.0,0001.96,0001.26,0001.05
2022-11-29 17:44:00,,0818.5,5.00,0.00,22.1,20.7,00.0,31.1,23.9,10.0,0000.0,0001.92,0001.26,0001.07
2022-11-29 17:45:00,,0818.4,5.00,0.00,22.0,20.5,00.0,31.0,23.7,10.0,0000.0,0001.93,0001.27,0001.08
2022-11-29 17:46:00,,0818.4,5.00,0.00,22.0,20.4,00.0,31.0,23.7,10.1,0000.0,0001.96,0001.28,0001.08
2022-11-29 17:47:00,,0818.4,5.00,0.00,22.0,20.3,00.0,31.0,23.6,10.1,0000.0,0002.03,0001.31,0001.09
2022-11-29 17:48:00,,0818.5,5.00,0.00,21.9,20.2,00.0,31.0,23.6,10.2,0000.0,0002.14,0001.34,0001.09
2022-11-29 17:49:00,,0818.5,5.00,0.00,21.9,20.2,00.0,30.9,23.5,10.2,0000.0,0002.17,0001.34,0001.10
2022-11-29 17:50:00,,0818.5,5.00,0.00,21.8,20.1,00.0,30.9,23.5,10.2,0000.0,0002.53,0001.34,0001.10
2022-11-29 17:51:00,,0818.4,5.01,0.00,21.9,20.7,00.0,30.9,23.6,10.2,0000.0,0002.91,0001.36,0001.11
2022-11-29 17:52:00,,0818.4,5.00,0.00,22.0,21.8,00.0,30.8,23.9,10.2,0000.0,0002.89,0001.38,0001.11
2022-11-29 17:53:00,,0818.4,4.99,0.00,22.1,22.1,00.0,30.9,24.0,10.1,0000.0,0002.93,0001.40,0001.12
2022-11-29 17:54:00,,0818.4,5.00,0.00,22.1,21.6,00.0,30.9,23.9,10.1,0000.0,0002.94,0001.41,0001.12
2022-11-29 17:55:00,,0818.4,5.00,0.00,22.0,21.1,00.0,30.9,23.8,10.1,0000.0,0003.02,0001.43,0001.12
2022-11-29 17:56:00,,0818.4,5.00,0.00,22.0,20.8,00.0,30.9,23.7,10.1,0000.0,0003.10,0001.47,0001.13
2022-11-29 17:57:00,,0818.4,5.00,0.00,22.0,20.6,00.0,30.9,23.6,10.2,0000.0,0003.24,0001.51,0001.14
2022-11-29 17:58:00,,0818.4,4.99,0.00,21.9,20.3,00.0,30.9,23.5,10.3,0000.0,0003.23,0001.53,0001.16
2022-11-29 17:59:00,,0818.4,5.01,0.00,21.9,20.2,00.0,30.9,23.5,10.5,0000.0,0003.21,0001.55,0001.18
